Theta_e
351 349 348 346 349 351 351 345 340 338 337 336 338 339 340 345 350 349 352 351 350 351 352 352 352 351 350 350 350 349 348 349 348 348 349 348 349 349 347 347 346 346 348
348 349 347 346 352 355 354 347 342 340 340 339 339 342 338 345 349 351 352 352 352 352 352 351 352 350 348 348 350 348 347 349 350 347 349 349 348 349 347 344 348 347 347
349 348 347 347 351 355 353 350 343 344 344 343 343 347 346 349 349 351 351 351 352 351 351 352 352 348 346 350 348 348 349 347 346 347 344 344 348 350 349 343 346 347 347
347 348 349 349 354 354 352 348 344 345 346 350 349 348 349 351 350 349 352 351 352 352 352 353 351 348 344 351 349 348 344 343 346 344 344 345 346 346 346 349 340 342 347
347 346 347 348 353 353 352 347 346 347 351 352 350 347 351 351 351 352 351 350 353 351 352 351 348 347 343 346 343 344 344 344 345 344 340 340 345 347 344 348 339 340 345
346 344 344 345 352 354 347 347 348 349 352 352 351 350 347 350 349 352 352 351 351 351 352 351 348 349 342 344 342 342 343 345 345 347 349 334 323 338 344 344 341 345 344
343 341 339 340 350 353 352 352 350 351 351 350 352 350 345 346 348 346 349 352 351 351 352 348 347 347 340 341 339 341 343 346 348 344 339 334 337 338 347 348 347 347 344
336 338 339 337 338 340 344 346 348 351 352 352 353 352 351 347 348 346 346 348 351 350 350 349 349 348 340 336 338 339 341 346 346 342 339 338 340 341 348 344 341 335 338
337 336 336 338 337 340 348 351 348 351 352 352 349 345 349 350 345 345 347 345 350 347 348 349 352 346 345 336 336 339 339 342 345 347 341 340 338 334 338 341 341 334 342
338 338 340 344 343 339 344 346 345 347 351 352 350 345 345 350 352 348 344 343 346 349 351 351 348 348 341 338 335 336 337 339 342 347 348 343 339 336 334 333 330 330 332
344 340 340 343 344 340 339 340 343 348 351 350 350 353 353 351 352 350 344 343 347 347 351 348 350 345 340 337 334 336 341 339 347 346 346 345 337 334 337 328 336 341 331
349 344 341 342 341 340 340 342 343 347 343 347 349 349 349 346 345 346 346 344 350 349 349 348 346 346 342 336 335 337 340 339 345 347 346 345 338 335 335 330 328 334 337
350 350 347 344 344 345 344 342 343 342 343 343 344 345 347 347 345 347 349 348 348 352 350 350 348 347 345 338 337 338 339 340 341 345 346 344 339 337 335 337 338 330 329
354 353 351 348 350 350 351 351 347 344 344 344 345 349 350 348 342 347 347 348 347 348 348 346 344 344 345 342 340 347 347 345 344 346 345 345 343 342 339 335 338 336 329
354 353 353 350 349 349 351 354 352 348 348 350 351 349 350 346 345 347 347 348 348 348 348 343 344 345 344 344 345 347 348 346 346 347 346 345 344 343 341 339 338 336 333
353 353 352 352 350 349 351 354 354 349 349 351 351 350 347 344 344 344 347 348 348 348 347 346 348 348 348 348 347 348 346 347 348 348 347 346 345 344 344 344 342 341 342
348 352 353 352 351 351 352 352 351 350 351 352 352 350 347 343 343 343 345 347 347 348 348 347 349 348 348 348 349 348 348 347 348 349 348 348 347 345 345 345 344 343 342
349 350 353 352 352 352 352 353 352 347 348 348 351 350 348 346 340 339 341 343 347 347 348 350 349 349 348 347 347 348 350 348 348 347 347 346 345 348 347 346 345 345 344
349 350 352 352 352 352 351 352 352 350 349 349 350 349 350 350 349 349 346 343 346 347 347 347 347 348 347 347 348 348 347 347 347 348 348 347 347 347 345 348 347 345 345
350 350 351 351 351 352 352 353 352 347 348 347 344 346 346 349 350 349 350 347 344 347 346 347 345 345 345 345 347 347 347 346 347 348 346 345 346 348 348 349 348 347 346
351 352 353 353 353 355 355 356 355 352 350 346 341 346 348 349 349 350 350 346 343 347 347 345 347 348 348 346 345 345 344 346 345 345 347 347 347 347 347 348 347 347 348
354 353 354 354 355 356 357 357 356 353 351 346 342 347 351 351 351 349 347 345 344 346 347 347 348 348 347 347 347 344 342 343 345 346 346 348 348 347 347 347 346 347 346
355 354 354 355 356 357 357 358 356 354 352 351 346 349 352 351 350 349 347 345 344 346 347 347 346 343 344 346 347 343 341 341 340 345 347 348 348 347 344 343 344 344 342
355 355 355 356 356 358 358 359 356 354 350 349 344 349 351 350 350 349 346 344 344 344 346 346 345 342 341 344 345 345 345 343 339 339 342 346 347 343 343 343 345 346 344
356 356 356 358 359 361 360 359 357 356 354 347 342 345 351 350 349 348 347 345 342 343 345 345 343 341 341 340 341 341 343 345 345 341 341 342 345 345 345 346 346 346 346
360 357 358 362 362 361 360 360 360 349 349 351 353 352 352 350 350 348 349 347 343 342 344 343 341 341 341 341 344 343 343 343 343 343 342 342 343 340 341 341 342 342 344
Wind_Speed
20 23 23 21 18 17 16 16 16 16 15 15 16 16 16 16 16 17 16 15 15 16 15 15 14 14 14 16 15 17 17 18 18 20 19 18 18 20 18 17 16 18 17
28 25 24 22 18 17 16 16 16 16 15 15 15 14 14 15 15 15 14 14 15 16 13 13 14 12 13 15 16 17 18 18 17 18 19 17 14 17 16 15 16 16 15
29 26 23 22 19 18 17 16 16 16 15 14 13 13 13 14 14 14 13 13 13 13 13 13 13 12 13 15 15 16 17 17 17 17 17 18 18 16 16 15 15 15 14
32 28 24 22 19 18 17 16 17 16 15 14 13 12 12 12 13 13 12 12 12 13 14 13 12 12 13 13 14 15 18 17 16 15 16 16 16 16 14 14 14 15 15
31 27 24 22 20 20 19 17 16 16 15 14 13 12 12 11 11 10 11 12 13 12 13 12 11 11 13 13 15 16 15 15 14 11 10 11 16 14 14 15 13 15 14
29 26 24 22 20 20 19 18 17 16 15 13 12 13 13 12 11 10 10 11 11 12 12 10 10 11 13 13 15 15 11 11 8 8 8 12 15 15 15 14 15 14 13
30 27 25 24 22 20 19 17 16 15 15 13 12 12 12 13 13 12 11 10 10 11 11 10 11 11 11 12 13 13 11 9 5 8 20 16 15 14 15 14 14 14 12
32 29 26 23 22 21 20 18 17 15 13 13 11 10 11 12 12 12 12 11 10 11 12 12 11 11 11 12 12 11 9 9 8 10 17 16 14 14 16 14 12 11 11
32 32 29 27 24 21 19 17 17 16 15 13 12 11 11 11 11 12 12 12 11 10 12 11 12 11 10 11 12 11 7 6 7 11 14 14 14 13 15 15 14 12 11
32 30 29 27 25 24 22 20 18 16 15 14 13 13 13 12 10 10 12 12 12 12 12 12 12 11 11 11 12 10 6 5 4 7 13 14 11 12 14 14 14 13 12
26 28 27 26 24 22 21 20 18 16 14 14 13 12 11 12 12 12 12 12 13 13 13 12 13 12 12 12 12 10 7 7 5 4 5 16 14 13 14 13 14 14 13
25 27 27 26 25 23 22 20 19 18 17 15 14 13 12 12 12 13 14 13 13 13 13 13 14 13 11 13 13 10 9 8 5 5 4 11 17 12 14 15 15 15 14
30 27 27 26 25 24 22 20 19 18 17 16 15 14 11 9 11 15 14 14 14 15 15 15 15 15 14 13 12 10 9 8 7 5 8 15 16 14 13 16 15 14 13
30 30 28 26 27 25 22 20 18 18 17 16 15 14 13 12 12 13 16 17 16 15 16 16 16 15 14 13 13 9 9 9 6 8 12 15 15 13 13 15 15 15 13
32 32 31 28 26 25 23 21 18 16 17 16 15 16 12 10 11 12 14 15 16 16 16 17 16 14 14 14 13 10 7 9 10 8 14 15 12 14 14 14 15 15 14
36 35 32 31 27 27 25 22 22 17 18 18 17 19 16 11 12 14 14 15 17 19 16 16 17 15 13 12 15 15 12 13 8 10 15 17 15 14 15 13 14 16 15
33 37 34 33 30 26 24 23 24 19 18 19 20 18 18 16 13 13 14 15 15 17 19 19 16 17 17 14 14 15 15 14 11 10 12 16 18 18 17 18 16 15 16
35 34 36 35 33 27 26 24 26 21 20 19 22 21 17 19 19 19 17 16 17 18 18 19 17 16 17 17 14 13 13 12 13 14 12 11 11 14 19 19 22 19 15
41 37 36 36 36 33 27 23 22 22 23 21 20 20 18 17 16 17 21 20 19 20 21 21 20 18 16 15 12 13 11 12 13 13 14 15 15 15 16 18 26 24 20
43 41 40 38 36 30 24 22 19 19 20 22 21 21 19 18 18 17 18 19 22 22 21 21 21 19 19 17 13 11 11 13 13 16 17 17 16 15 17 18 21 24 22
40 42 41 39 35 30 26 24 22 24 22 20 18 16 17 17 18 18 19 18 21 23 23 21 19 17 16 15 11 11 14 14 16 16 16 15 16 17 16 15 19 18 18
40 44 41 40 36 33 30 29 25 25 19 18 12 15 16 19 18 18 17 18 21 23 21 19 18 14 12 12 6 3 1 5 10 12 17 18 15 14 13 12 15 18 18
37 39 41 41 37 36 31 29 22 17 18 16 17 17 17 17 19 16 14 18 24 23 23 21 17 14 12 11 14 4 1 4 1 1 2 6 10 13 9 11 11 18 24
37 39 39 38 37 35 31 30 27 20 17 19 18 19 18 18 17 15 14 19 23 26 25 25 21 19 14 13 8 12 11 3 2 2 1 2 5 6 6 5 9 11 15
34 36 36 37 35 33 31 29 23 18 17 15 15 19 21 20 17 16 15 14 19 26 24 19 18 19 18 17 18 11 12 15 14 4 3 2 3 3 3 8 6 6 7
28 31 34 33 35 31 29 26 19 16 14 16 13 20 24 24 18 17 17 17 16 21 22 20 19 20 19 19 19 17 14 6 6 6 3 3 4 3 4 5 6 7 5
Wind_Direction
153 149 152 152 144 139 134 134 136 134 126 116 110 107 106 107 106 108 106 109 121 118 115 114 115 114 113 112 116 111 113 118 120 120 120 118 118 115 117 114 116 115 117
153 154 154 154 148 144 142 141 140 140 136 126 117 112 110 112 112 110 108 109 116 124 127 120 124 117 115 119 117 114 119 121 126 123 121 114 119 124 113 118 118 121 123
152 155 157 156 155 151 151 148 144 144 141 132 124 117 117 117 120 118 113 116 120 127 128 128 123 119 122 124 119 118 120 121 125 127 125 115 110 124 131 124 125 125 122
151 153 157 158 156 156 155 153 150 148 144 140 134 124 123 122 123 122 118 120 127 124 127 125 126 124 131 126 121 121 126 132 120 125 125 119 120 121 125 129 125 131 122
152 154 154 156 156 158 160 156 153 152 152 149 140 136 133 128 126 127 130 126 127 131 134 132 130 138 139 130 125 120 122 133 137 133 129 141 135 133 132 131 131 138 133
154 158 157 158 155 156 159 159 158 157 155 152 152 148 141 138 139 133 137 135 132 135 135 136 142 146 145 140 136 129 136 129 138 176 204 156 143 142 138 136 135 137 139
161 163 161 162 159 158 158 159 158 159 162 161 156 154 149 150 151 147 144 147 145 144 144 147 147 153 155 153 149 141 146 126 84 168 167 158 148 147 148 147 144 146 150
160 165 164 165 164 164 162 162 164 164 163 161 160 162 159 157 152 154 152 158 157 157 156 153 153 157 163 160 158 152 156 118 114 160 174 170 162 157 157 161 157 159 159
165 165 167 167 166 165 164 165 168 168 168 172 170 170 171 161 161 160 161 163 167 167 163 162 165 169 175 174 167 168 164 125 110 166 192 185 179 173 169 165 165 164 164
167 168 170 169 169 169 171 176 178 179 179 181 179 179 177 181 182 176 171 170 172 175 174 173 174 178 186 182 177 179 175 153 127 171 201 192 195 188 178 178 173 170 170
167 173 174 173 175 175 177 181 182 184 190 193 194 193 196 201 200 197 192 183 181 179 180 185 185 189 195 194 189 189 191 174 154 123 164 195 192 199 189 185 181 178 176
171 177 180 181 181 180 182 186 191 190 195 199 202 200 208 216 212 212 206 195 193 188 188 190 192 193 197 201 201 204 200 181 184 183 240 204 189 201 202 193 190 190 188
179 178 185 187 186 186 184 187 194 202 205 203 205 204 203 222 228 227 215 206 201 198 193 196 199 203 205 207 207 210 221 223 219 237 241 193 192 199 212 201 201 201 200
178 185 186 190 188 191 191 191 196 206 209 210 205 208 218 221 244 238 214 216 209 210 207 204 206 209 214 217 214 228 248 247 211 268 231 189 198 207 216 213 207 210 210
182 188 191 189 192 192 195 197 203 209 207 211 221 219 216 219 216 220 213 214 218 220 218 209 206 213 216 215 213 240 254 238 236 280 214 204 213 214 220 224 221 218 218
186 190 195 193 191 192 194 204 208 214 215 220 223 219 213 207 192 210 217 212 224 222 219 216 216 217 215 219 232 236 241 244 247 235 223 217 231 225 222 227 237 232 228
187 193 196 195 195 196 197 202 205 211 211 219 225 230 219 213 211 220 222 218 221 211 219 221 223 224 230 222 239 237 240 240 240 230 233 234 237 233 241 233 236 240 240
189 190 196 196 195 192 187 188 184 199 209 224 223 229 229 230 235 234 231 225 214 210 202 205 210 213 219 222 230 234 232 230 246 242 240 243 239 242 239 241 240 239 239
190 191 193 194 191 191 197 199 201 219 220 232 230 234 241 242 240 241 235 232 218 213 211 211 218 219 220 218 228 223 239 248 257 253 253 256 254 248 246 246 241 239 239
187 192 192 192 193 196 201 204 208 224 227 229 245 245 248 248 246 245 239 237 223 214 213 214 220 217 220 221 222 228 237 240 255 256 258 264 259 261 258 252 248 240 243
182 187 191 191 195 192 192 197 206 216 221 235 238 242 250 252 245 246 245 236 212 209 203 206 207 210 209 211 215 237 245 249 254 256 260 259 254 255 260 252 252 245 232
179 187 190 194 195 196 197 200 208 222 230 241 257 242 249 250 246 238 237 219 208 206 201 199 192 197 214 210 194 158 276 258 249 256 252 247 242 249 249 255 250 237 242
181 185 189 194 198 197 200 201 207 224 233 244 249 242 244 232 227 232 235 217 209 205 204 208 205 200 199 206 224 160 112 228 356 300 16 209 217 237 233 250 290 252 256
184 184 189 191 197 197 199 200 208 220 223 238 241 232 237 224 226 225 228 216 215 208 208 214 211 212 214 208 208 226 241 193 178 315 202 109 193 198 232 290 265 247 239
175 179 187 189 191 190 195 204 208 220 238 249 245 237 221 222 224 224 217 213 209 205 209 209 209 212 219 233 236 235 236 238 236 192 249 193 161 133 198 218 231 252 269
170 173 184 178 184 192 197 198 200 208 224 239 250 239 232 227 218 227 218 212 206 209 217 219 220 227 235 235 235 228 220 198 204 200 202 219 169 186 213 218 240 248 256